Tributaries of Elbe river

river Ploučnice - water gauge Benešov nad Ploučnicí

Date and time (UTC) H (cm) Q (m³/s)
6. 12. 2022 04:30 81 4.6
6. 12. 2022 04:00 83 5
6. 12. 2022 03:00 83 5
6. 12. 2022 02:00 81 5
6. 12. 2022 01:00 82 5
6. 12. 2022 00:00 83 5
5. 12. 2022 23:00 82 5
5. 12. 2022 22:00 83 5
5. 12. 2022 21:00 82 5
5. 12. 2022 20:00 83 5
5. 12. 2022 19:00 82 5
5. 12. 2022 18:00 84 5
5. 12. 2022 17:00 81 5
5. 12. 2022 16:00 82 5

H - water level, Q - discharge

river Ohře - water gauge Louny

Date and time (UTC) H (cm) Q (m³/s)
6. 12. 2022 04:30 185 15.5
6. 12. 2022 04:00 185 16
6. 12. 2022 03:00 186 16
6. 12. 2022 02:00 185 16
6. 12. 2022 01:00 185 16
6. 12. 2022 00:00 185 16
5. 12. 2022 23:00 185 16
5. 12. 2022 22:00 185 16
5. 12. 2022 21:00 185 16
5. 12. 2022 20:00 185 16
5. 12. 2022 19:00 184 15
5. 12. 2022 18:00 184 15
5. 12. 2022 17:00 185 16
5. 12. 2022 16:00 185 16

H - water level, Q - discharge

Vraňany

Date and time (UTC) H (cm) Q (m³/s)
6. 12. 2022 04:30 67 111
6. 12. 2022 04:00 67 111
6. 12. 2022 03:00 66 110
6. 12. 2022 02:00 59 103
6. 12. 2022 01:00 57 101
6. 12. 2022 00:00 62 106
5. 12. 2022 23:00 74 119
5. 12. 2022 22:00 77 122
5. 12. 2022 21:00 77 122
5. 12. 2022 20:00 75 120
5. 12. 2022 19:00 69 113
5. 12. 2022 18:00 62 106
5. 12. 2022 17:00 70 115
5. 12. 2022 16:00 81 126

H - water level, Q - discharge

river Jizera - water gauge Předměřice

Date and time (UTC) H (cm) Q (m³/s)
6. 12. 2022 04:30 110 5
6. 12. 2022 04:00 115 6
6. 12. 2022 03:00 118 7
6. 12. 2022 02:00 123 8
6. 12. 2022 01:00 124 9
6. 12. 2022 00:00 114 6
5. 12. 2022 23:00 118 7
5. 12. 2022 22:00 125 9
5. 12. 2022 21:00 125 9
5. 12. 2022 20:00 116 7
5. 12. 2022 19:00 119 7
5. 12. 2022 18:00 119 7
5. 12. 2022 17:00 120 8
5. 12. 2022 16:00 122 8

H - water level, Q - discharge

river Cidlina - water gauge Sány

Date and time (UTC) H (cm) Q (m³/s)
6. 12. 2022 04:30 20 0.7
6. 12. 2022 04:00 20 1
6. 12. 2022 03:00 18 1
6. 12. 2022 02:00 17 1
6. 12. 2022 01:00 17 1
6. 12. 2022 00:00 17 1
5. 12. 2022 23:00 17 1
5. 12. 2022 22:00 17 1
5. 12. 2022 21:00 17 1
5. 12. 2022 20:00 17 1
5. 12. 2022 19:00 17 1
5. 12. 2022 18:00 17 1
5. 12. 2022 17:00 17 1
5. 12. 2022 16:00 17 1

H - water level, Q - discharge

river Orlice - water gauge Týniště nad Orlicí

Date and time (UTC) H (cm) Q (m³/s)
6. 12. 2022 04:20 55 5.4
6. 12. 2022 04:00 55 5
6. 12. 2022 03:00 55 5
6. 12. 2022 02:00 53 5
6. 12. 2022 01:00 53 5
6. 12. 2022 00:00 50 5
5. 12. 2022 23:00 50 5
5. 12. 2022 22:00 52 5
5. 12. 2022 21:00 53 5
5. 12. 2022 20:00 55 5
5. 12. 2022 19:00 54 5
5. 12. 2022 18:00 51 5
5. 12. 2022 17:00 52 5
5. 12. 2022 16:00 55 5

H - water level, Q - discharge
Source data
Labe Basin Vltava Basin Povodí Moravy ČHMÚ